Location: Newark
(35.0589°N, 135.9944°E)
Time: 04:50:33
(UTC+00:00)

Hubble Space Telescope - Visible Passes

Search period start: 23 September 2019 00:00
Search period end: 03 October 2019 00:00
Orbit: 536 x 540 km, 28.5° (Epoch: 22 September)

Date Brightness Start Highest point End Pass type
(mag) Time Alt. Az. Time Alt. Az. Time Alt. Az.
29 Sep 3.2 10:31:40 10° SSW 10:32:11 12° SSW 10:32:11 12° SSW visible
30 Sep 2.8 10:20:37 10° SSW 10:22:27 17° S 10:22:27 17° S visible
01 Oct 2.4 10:09:41 10° SW 10:12:38 21° S 10:12:38 21° S visible
02 Oct 2.1 09:58:51 10° SW 10:02:12 24° SSE 10:02:46 23° SSE visible
